SCP
0 0 0 0 0 0 0 0 0 0 0 0 0 0 0 0 0 0 0 0 0 0 0 0 0 0 0 0 0 0 0 0 0 0 0 0 0 0 0 0 0 0 0 0 0 0 0 0 0
0 0 0 0 0 0 0 0 0 0 0 0 0 0 0 0 0 0 0 0 1 0 0 0 0 0 0 0 0 0 0 0 0 0 0 0 0 0 0 0 0 0 0 0 0 0 0 0 0
0 0 0 0 0 0 0 0 0 0 0 0 0 0 0 0 0 0 0 1 1 1 0 0 1 1 0 0 0 0 0 0 0 0 0 0 0 0 0 0 0 0 0 0 0 0 0 0 0
0 0 0 0 0 0 0 0 0 0 0 0 0 0 0 0 0 0 1 1 1 1 1 1 1 1 0 0 0 0 0 0 0 0 0 0 0 0 0 0 0 0 0 0 0 0 0 0 0
0 0 0 0 0 0 0 0 0 0 0 0 0 0 0 0 1 1 1 1 1 1 1 1 1 1 0 0 0 0 0 0 0 0 0 0 0 0 0 0 0 0 0 0 0 0 0 0 0
0 0 0 0 0 0 0 0 0 0 0 0 0 0 0 0 1 1 1 1 1 1 1 1 1 1 0 0 0 0 0 0 0 0 0 0 0 0 0 0 0 0 0 0 0 0 0 0 0
0 0 0 0 0 0 0 0 0 0 0 0 0 0 0 0 1 1 1 1 1 1 1 1 1 1 0 0 0 0 0 0 0 0 0 0 0 0 0 0 0 0 0 0 0 0 0 0 0
0 0 0 0 0 0 0 0 0 0 0 0 0 0 0 1 1 1 1 1 1 1 1 1 1 1 0 0 0 0 0 0 0 0 0 0 0 0 0 0 0 0 0 0 0 0 0 0 0
0 0 0 0 0 0 0 0 0 0 0 0 0 0 1 1 1 1 1 1 1 1 1 1 1 1 0 0 0 0 0 0 0 0 0 0 0 0 0 0 0 0 0 0 0 0 0 0 0
0 0 0 0 0 0 0 0 0 0 0 0 0 1 1 1 1 1 1 1 1 1 1 1 1 0 0 0 0 0 0 0 0 0 0 0 0 0 0 0 0 0 0 0 0 0 0 0 0
0 0 0 0 0 0 0 0 0 0 0 0 0 1 1 1 1 1 1 1 1 1 1 1 1 0 0 0 0 0 0 0 0 0 0 0 0 0 0 0 0 0 0 0 0 0 0 0 0
0 0 0 0 0 0 0 0 0 0 0 0 0 1 1 1 1 1 1 1 1 1 0 0 0 0 0 0 0 0 0 0 0 0 0 0 0 0 0 0 0 0 0 0 0 0 0 0 0
0 0 0 0 0 0 0 0 0 0 0 0 0 0 1 1 1 1 1 1 1 1 0 0 0 0 0 0 0 0 0 0 0 0 0 0 0 0 0 0 0 0 0 0 0 0 0 0 0
0 0 0 0 0 0 0 0 0 0 0 0 0 0 0 0 0 0 1 1 1 1 1 0 0 0 0 0 0 0 0 0 0 0 0 0 0 0 0 0 0 0 0 0 0 0 0 0 0
0 0 0 0 0 0 0 0 0 0 0 0 0 0 0 0 0 0 0 1 1 1 1 1 0 0 0 0 0 0 0 0 0 0 0 0 0 0 0 0 0 0 0 0 0 0 0 0 0
0 0 0 0 0 0 0 0 0 0 0 0 0 0 0 0 0 0 0 0 1 1 1 1 1 0 0 0 0 0 0 0 0 0 0 0 0 0 0 0 0 0 0 0 0 0 0 0 0
0 0 0 0 0 0 0 0 0 0 0 0 0 0 0 0 0 0 0 0 0 1 1 1 1 0 0 0 0 0 0 0 0 0 0 0 0 0 0 0 0 0 0 0 0 0 0 0 0
0 0 0 0 0 0 0 0 0 0 0 0 0 0 0 0 0 0 0 0 0 0 1 1 1 0 0 0 0 0 0 0 0 0 0 0 0 0 0 0 0 0 0 0 0 0 0 0 0
0 0 0 0 0 0 0 0 0 0 0 0 0 0 0 0 0 0 0 0 0 0 1 1 1 1 0 0 0 0 0 0 0 0 0 0 0 0 0 0 0 0 0 0 0 0 0 0 0
0 0 0 0 0 0 0 0 0 0 0 0 0 0 0 0 0 0 0 0 0 0 0 1 1 1 0 0 0 0 0 0 0 0 0 0 0 0 0 0 0 0 0 0 0 0 0 0 0
0 0 0 0 0 0 0 0 0 0 0 0 0 0 0 0 0 0 0 0 0 0 0 0 0 1 0 0 0 0 0 0 0 0 0 0 0 0 0 0 0 0 0 0 0 0 0 0 0
0 0 0 0 0 0 0 0 0 0 0 0 0 0 0 0 0 0 0 0 0 0 0 0 0 0 0 0 1 0 0 0 0 0 0 0 0 0 0 0 0 0 0 0 0 0 0 0 0
0 0 0 0 0 0 0 0 0 0 0 0 0 0 0 0 0 0 0 0 0 0 0 0 0 0 0 0 0 0 0 0 0 0 0 0 0 0 0 0 0 0 0 0 0 0 0 0 0
0 0 0 0 0 0 0 0 0 0 0 0 0 0 0 0 0 0 0 0 0 0 0 0 0 0 0 0 0 0 0 0 0 0 0 0 0 0 0 0 0 0 0 0 0 0 0 0 0
0 0 0 0 0 0 0 0 0 0 0 0 0 0 0 0 0 0 0 0 0 0 0 0 0 0 0 0 0 0 0 0 0 0 0 0 0 0 0 0 0 0 0 0 0 0 0 0 0
0 0 0 0 0 0 0 0 0 0 0 0 0 0 0 0 0 0 0 0 0 0 0 0 0 0 0 0 0 0 0 0 0 0 0 0 0 0 0 0 0 0 0 0 0 0 0 0 0
0 0 0 0 0 0 0 0 -0 0 0 0 0 0 0 0 0 0 0 0 0 0 0 0 0 0 0 0 0 0 0 0 0 0 0 0 0 0 0 0 0 0 0 0 0 0 0 0 0
0 0 0 0 0 0 0 -0 0 0 0 0 0 0 0 0 0 0 0 0 0 0 0 0 0 0 0 0 0 0 0 0 0 0 0 0 0 0 0 0 0 0 0 0 0 0 0 0 0
0 0 0 0 0 0 0 0 0 0 0 0 0 0 0 0 0 0 0 0 0 0 0 0 0 0 0 0 0 0 0 0 0 0 0 0 0 0 0 0 0 0 0 0 0 0 0 0 0
0 0 0 0 0 0 0 0 0 0 0 0 0 0 0 0 0 0 0 0 0 0 0 0 0 0 0 0 0 0 0 0 0 0 0 0 0 0 0 0 0 0 0 0 0 0 0 0 0
Wind_Speed
3 2 2 4 5 3 4 6 4 3 2 2 1 5 7 4 3 4 2 10 15 14 12 15 16 16 17 16 16 15 15 14 14 13 13 13 12 12 11 12 12 13 13 14 14 14 13 14 13
0 1 4 5 5 3 6 6 5 6 5 3 2 4 6 3 2 6 5 11 17 15 11 13 16 17 17 17 16 16 15 14 13 13 12 12 12 12 12 12 13 13 14 14 14 13 13 12 12
0 1 4 4 5 7 7 5 5 5 5 3 1 4 6 5 4 5 8 14 14 12 10 12 16 17 17 17 16 16 15 14 13 13 12 12 12 12 12 13 13 13 14 13 13 12 11 11 11
2 3 3 3 7 8 7 4 1 4 5 2 2 4 3 0 4 8 14 15 14 10 9 12 16 17 17 17 16 16 15 14 14 13 12 12 12 13 13 14 13 13 13 13 12 11 10 10 10
3 4 3 4 8 6 7 6 2 3 3 3 2 4 2 5 6 15 15 15 14 11 9 12 16 17 17 16 15 15 15 14 14 13 12 12 12 14 14 14 13 13 13 12 11 10 9 9 9
3 4 5 8 8 7 7 5 2 4 4 4 2 5 1 2 8 12 14 13 14 13 11 11 15 15 16 16 15 14 14 14 13 13 12 12 13 14 14 14 13 13 12 11 11 10 9 8 7
4 5 6 8 7 8 10 4 4 4 5 4 3 6 2 1 5 10 12 12 12 12 10 9 10 12 14 14 14 14 13 13 12 12 11 11 12 13 14 13 13 12 12 11 10 9 8 7 6
4 5 5 7 9 10 7 4 4 5 6 3 4 8 6 5 7 10 12 11 11 10 10 9 8 8 9 10 13 13 13 12 11 11 10 10 10 11 12 10 11 11 11 10 9 9 7 6 5
3 3 7 9 10 8 4 4 5 3 3 1 1 4 6 9 12 13 11 9 9 11 9 9 8 8 8 8 10 11 11 11 11 9 11 9 5 5 6 7 10 10 10 10 9 8 7 5 3
4 6 9 5 5 4 3 4 4 2 2 0 3 3 6 9 13 14 13 12 11 11 10 9 9 9 8 7 7 5 5 6 6 5 6 4 4 4 5 8 9 9 9 8 8 8 6 3 1
6 7 4 2 2 2 2 3 3 4 4 5 7 8 7 8 10 11 11 11 11 11 10 10 9 9 8 6 6 3 3 4 5 6 6 5 4 3 3 3 4 5 5 3 4 4 2 2 2
4 4 3 2 1 2 3 2 2 4 6 5 8 10 9 10 10 12 12 10 10 11 10 10 10 9 8 7 6 5 4 4 4 5 6 5 3 3 3 3 3 3 2 3 3 2 3 3 3
5 3 4 3 3 2 1 1 1 3 4 3 6 7 9 9 8 7 9 9 9 10 10 10 10 10 9 8 6 6 5 6 6 5 6 6 5 5 4 4 4 4 3 3 3 3 4 4 4
5 3 3 4 4 3 3 2 2 4 1 3 6 6 7 7 8 6 7 8 8 9 9 9 10 10 10 8 7 6 6 6 6 6 7 7 6 6 6 5 5 5 4 4 4 5 4 4 3
4 3 2 4 5 4 4 4 6 5 0 2 3 4 5 6 7 8 9 9 9 9 9 9 9 10 10 9 8 7 6 6 6 6 7 8 7 7 7 6 6 5 5 5 4 4 3 3 3
5 4 4 5 6 5 7 10 8 4 2 3 3 3 3 4 6 7 8 8 7 7 8 8 7 8 9 8 7 5 6 7 6 6 6 8 9 9 7 6 6 6 5 5 4 4 4 4 3
5 7 8 4 5 5 6 7 6 4 4 5 5 4 4 3 4 5 6 7 8 8 8 8 7 7 8 7 6 5 5 6 6 6 6 7 9 9 7 6 6 6 5 5 5 4 4 4 4
9 7 7 7 5 6 6 6 5 3 4 6 6 6 5 5 6 5 6 6 7 7 7 7 6 6 6 5 4 3 4 4 4 5 6 8 7 8 7 6 6 6 5 5 5 5 4 4 4
5 5 6 5 4 6 7 8 8 6 5 7 7 7 7 7 5 3 4 5 5 5 6 6 6 6 5 4 4 4 4 3 3 4 5 7 7 7 7 5 6 6 7 7 7 5 5 4 3
5 6 5 3 3 5 6 10 9 9 8 8 9 9 8 6 4 4 3 3 4 5 5 6 6 6 5 4 4 3 3 3 3 3 4 6 6 7 6 7 6 7 6 6 7 6 4 4 4
6 7 7 5 2 2 2 6 10 9 7 8 8 8 8 9 8 6 4 4 4 4 4 5 5 5 5 4 3 2 1 1 2 3 3 4 5 6 6 7 7 7 7 7 8 8 7 6 5
5 6 6 5 5 4 6 5 8 9 10 11 11 9 8 7 6 5 5 4 4 3 3 3 3 3 3 4 4 5 5 5 4 3 3 3 4 5 5 6 7 7 7 8 8 8 7 7 6
4 3 4 4 4 2 3 3 8 4 11 14 13 11 9 7 7 6 5 4 3 3 3 2 3 2 2 3 4 5 4 4 2 2 2 3 3 3 4 5 5 6 6 7 7 7 8 7 7
4 5 5 3 2 4 6 5 8 6 11 9 10 10 8 7 6 5 4 4 3 3 3 3 3 2 2 2 2 3 4 3 2 2 2 2 2 2 3 4 4 4 5 6 7 7 8 8 7
5 6 3 3 3 6 5 6 11 8 8 10 10 9 8 8 7 6 5 4 3 3 3 3 3 2 2 2 2 2 2 3 3 3 3 2 2 2 3 3 3 4 4 4 5 5 6 7 7
6 6 6 6 6 3 4 9 9 6 5 4 6 8 8 8 7 6 5 5 4 4 3 3 3 2 2 2 2 1 1 1 1 2 2 2 2 2 2 3 3 3 3 3 3 3 3 3 4
7 4 3 3 2 2 5 6 6 1 2 4 7 8 8 7 7 6 5 5 4 4 3 3 3 3 2 2 2 2 2 1 1 0 0 0 1 1 1 1 1 2 2 1 1 1 1 1 1
4 6 4 4 5 4 4 4 5 4 4 5 7 7 6 6 6 6 5 4 4 3 3 4 4 3 3 3 3 3 3 3 2 2 2 2 2 2 1 1 1 1 1 1 1 1 1 2 1
5 4 4 3 3 4 3 6 5 8 8 7 6 6 7 7 6 5 4 4 4 4 4 4 3 4 3 3 4 4 4 4 4 4 4 3 3 3 3 3 3 3 3 3 3 3 3 3 3
4 5 6 5 4 4 3 7 4 5 6 7 7 6 6 6 6 5 5 5 4 4 3 3 3 3 3 3 4 4 4 5 5 5 5 4 5 5 5 4 5 5 5 5 4 4 4 4 4
Wind_Direction
300 4 72 62 63 68 228 239 231 272 271 246 188 126 115 108 145 166 113 138 136 144 152 151 149 145 144 142 140 137 136 133 131 129 126 126 125 122 120 119 115 110 106 103 100 97 95 96 95
17 49 66 70 112 177 246 240 238 243 235 242 179 117 97 89 113 113 120 144 141 144 149 151 147 145 143 142 140 139 137 135 132 130 129 129 127 127 125 123 118 113 109 107 105 102 100 99 96
65 72 102 105 155 191 225 231 230 271 272 236 143 89 109 138 146 134 146 141 137 140 144 150 147 145 143 142 141 139 137 135 132 132 132 131 131 131 129 126 121 117 114 112 110 108 105 101 96
96 74 77 134 203 213 217 235 285 310 316 291 111 74 63 15 165 136 138 138 135 134 137 149 147 145 143 142 141 140 139 136 134 133 133 134 135 133 130 127 124 122 120 119 116 113 109 104 95
79 112 138 203 219 233 240 254 279 284 282 288 101 100 42 348 106 129 138 140 139 136 140 150 147 146 145 144 143 143 141 139 138 137 137 138 138 136 133 132 132 130 128 126 124 122 117 110 98
116 118 163 206 218 238 250 245 261 270 271 288 117 109 96 44 113 136 139 140 141 141 144 151 147 146 147 147 146 145 143 142 141 141 142 142 141 140 138 138 138 137 135 135 134 132 127 119 107
156 153 189 195 207 233 239 226 217 244 265 254 155 116 128 124 131 135 136 136 138 141 143 146 149 149 149 149 148 147 144 143 143 143 143 141 141 144 144 144 144 144 142 141 142 142 139 132 120
165 149 181 190 197 225 235 233 229 219 249 254 131 140 169 183 133 123 129 133 138 143 146 146 148 150 149 150 149 147 145 145 143 138 136 138 141 146 147 149 149 149 149 149 150 152 152 148 137
138 150 198 196 195 218 215 224 259 235 231 323 75 168 170 142 123 122 129 135 143 149 152 152 151 151 148 150 152 148 146 147 142 140 141 136 136 140 146 152 152 153 154 157 160 164 165 161 159
161 197 212 199 187 193 194 208 243 244 249 324 46 68 109 123 130 138 148 153 156 160 162 160 158 156 153 155 146 146 147 146 144 148 146 141 143 151 154 159 159 160 161 165 170 173 173 163 183
180 205 208 238 211 192 186 219 236 200 227 206 168 157 145 138 140 146 156 162 164 165 166 167 165 161 158 149 151 151 147 150 154 160 159 153 151 154 153 154 160 161 162 163 174 173 179 194 214
190 217 188 232 263 210 188 201 239 205 211 203 175 163 155 157 161 162 162 165 165 167 170 170 169 165 163 157 162 162 160 164 169 177 172 161 160 165 167 169 169 167 167 174 178 183 207 226 238
221 202 192 230 271 241 202 182 209 236 220 163 141 152 164 172 177 174 164 163 162 169 172 172 170 169 169 165 170 172 176 178 180 183 184 175 171 176 177 180 181 183 181 185 192 200 212 227 240
200 209 219 227 230 233 200 231 156 234 215 126 136 153 171 178 179 177 173 171 175 174 172 170 170 170 170 173 176 178 183 184 183 188 190 185 182 181 183 186 190 194 194 195 198 205 210 219 221
155 177 253 227 199 200 160 235 218 223 267 144 157 168 175 187 183 184 187 183 182 178 174 174 174 170 172 177 182 181 185 184 187 194 195 191 188 187 187 190 196 201 199 199 201 211 212 220 220
148 163 206 229 184 182 163 223 233 228 204 235 221 202 194 199 193 194 188 184 182 175 174 177 177 174 175 178 181 181 185 186 189 192 195 196 193 190 190 194 200 197 195 196 199 202 206 220 219
165 185 195 216 193 165 172 224 246 230 210 236 240 236 229 227 215 204 191 184 180 176 173 177 177 177 180 180 181 181 183 189 191 191 193 197 196 194 193 198 199 191 194 198 204 202 196 210 219
178 174 178 194 200 166 191 228 257 246 219 238 241 237 234 229 225 205 189 183 179 177 175 177 180 181 180 176 173 176 187 193 192 195 198 198 198 195 195 199 199 191 195 202 201 200 202 203 202
151 150 173 202 200 173 208 232 246 251 241 244 245 238 232 232 229 206 188 176 167 169 172 179 180 183 174 171 178 184 196 198 198 201 203 203 203 199 198 202 199 197 204 206 201 195 202 210 169
161 165 183 215 211 185 216 241 246 243 238 230 230 231 226 225 219 210 195 172 171 177 175 175 182 183 184 186 183 182 180 195 201 203 207 207 207 207 207 207 207 204 207 210 206 197 195 201 176
185 185 189 189 183 181 172 263 249 248 240 242 233 223 216 209 204 202 192 179 162 170 178 176 178 179 184 182 163 142 137 158 197 213 217 218 214 213 214 215 213 211 209 215 213 205 201 209 205
200 193 191 181 152 204 180 240 258 234 240 237 234 224 215 205 191 183 173 163 156 165 160 159 160 163 175 171 169 175 189 205 214 217 224 234 228 227 224 221 216 216 216 220 218 211 208 202 208
193 161 158 168 158 173 179 210 274 233 231 234 228 220 213 196 177 167 157 148 135 128 121 120 120 126 146 156 173 182 199 215 220 219 226 236 240 238 238 232 225 223 221 223 221 215 212 211 211
158 95 77 68 104 223 203 189 266 230 222 229 221 210 197 173 154 143 134 123 111 100 97 99 106 100 106 133 148 170 189 197 197 217 229 241 244 246 250 247 238 233 228 226 225 222 216 218 218
148 125 129 162 199 234 191 199 247 244 235 219 206 189 170 155 146 143 139 130 120 110 104 100 105 95 86 106 120 153 180 187 201 216 226 236 242 246 256 248 246 243 240 236 229 224 224 222 219
167 151 163 177 191 233 194 223 251 271 270 209 171 155 147 145 144 145 146 142 134 121 107 103 103 93 77 87 89 85 127 172 206 221 223 228 236 242 252 247 248 251 247 239 225 220 224 220 221
148 173 166 128 138 175 236 261 298 356 60 112 127 134 144 146 143 141 138 133 129 122 112 109 105 91 73 77 82 64 55 67 73 52 111 243 277 263 260 248 255 264 259 239 207 199 209 185 195
144 146 131 151 164 209 252 246 236 217 192 159 149 147 147 141 137 135 134 130 121 113 100 90 91 89 74 69 72 74 53 51 58 65 55 43 24 17 27 26 21 9 16 24 90 98 98 107 98
154 158 161 166 184 169 222 261 226 207 196 178 171 161 154 152 150 145 138 126 114 101 94 90 86 81 75 74 72 68 57 56 59 59 49 42 38 38 47 50 56 56 51 51 71 75 78 91 82
177 179 163 169 206 185 186 265 291 215 185 168 167 166 161 155 152 147 138 125 114 107 101 97 92 88 85 85 81 74 67 64 63 56 47 48 49 46 50 56 61 59 54 55 68 73 74 80 80